06-09-2023, 00:00:00,    358,    0.0,   15.3,   0.00,   0.00, 1015.5,    0.1, -999.0
06-09-2023, 00:00:10,    358,    0.0,   15.3,   0.00,   0.00, 1015.5,    0.3, -999.0
06-09-2023, 00:00:20,    358,    0.0,   15.4,   0.00,   0.00, 1015.5,    0.5, -999.0
06-09-2023, 00:00:30,    358,    0.0,   15.3,   0.00,   0.00, 1015.5,    0.4, -999.0
06-09-2023, 00:00:40,    358,    0.0,   15.3,   0.00,   0.00, 1015.4,    0.7, -999.0
06-09-2023, 00:00:50,    358,    0.0,   15.4,   0.00,   0.00, 1015.5,    0.2, -999.0
06-09-2023, 00:01:00,    358,    0.0,   15.4,   0.00,   0.00, 1015.5,    0.2, -999.0
06-09-2023, 00:01:10,    358,    0.0,   15.4,   0.00,   0.00, 1015.5,    0.0, -999.0
06-09-2023, 00:01:20,    358,    0.0,   15.4,   0.00,   0.00, 1015.5,    0.1, -999.0
06-09-2023, 00:01:30,    358,    0.0,   15.4,   0.00,   0.00, 1015.4,    0.2, -999.0
06-09-2023, 00:01:40,    358,    0.0,   15.2,   0.00,   0.00, 1015.4,    0.3, -999.0
06-09-2023, 00:01:50,    358,    0.0,   15.4,   0.00,   0.00, 1015.4,    0.2, -999.0
06-09-2023, 00:01:59,    358,    0.0,   15.4,   0.00,   0.00, 1015.4,    0.1, -999.0
06-09-2023, 00:02:10,    358,    0.0,   15.4,   0.00,   0.00, 1015.4,    0.3, -999.0
06-09-2023, 00:02:20,    358,    0.0,   15.4,   0.00,   0.00, 1015.4,    0.2, -999.0
06-09-2023, 00:02:29,    358,    0.0,   15.4,   0.00,   0.00, 1015.4,    0.2, -999.0
06-09-2023, 00:02:39,    358,    0.0,   15.4,   0.00,   0.00, 1015.4,    0.3, -999.0
06-09-2023, 00:02:50,    358,    0.0,   15.4,   0.00,   0.00, 1015.4,    0.3, -999.0
06-09-2023, 00:03:00,    358,    0.0,   15.4,   0.00,   0.00, 1015.4,    0.4, -999.0
06-09-2023, 00:03:09,    358,    0.0,   15.4,   0.00,   0.00, 1015.4,    0.2, -999.0
06-09-2023, 00:03:19,    358,    0.0,   15.4,   0.00,   0.00, 1015.4,    0.2, -999.0
06-09-2023, 00:03:30,    358,    0.0,   15.4,   0.00,   0.00, 1015.4,    0.2, -999.0
06-09-2023, 00:03:39,    358,    0.0,   15.4,   0.00,   0.00, 1015.4,    0.5, -999.0
06-09-2023, 00:03:49,    358,    0.0,   15.4,   0.00,   0.00, 1015.4,    0.1, -999.0
06-09-2023, 00:03:59,    358,    0.0,   15.5,   0.00,   0.00, 1015.4,    0.2, -999.0
06-09-2023, 00:04:09,    358,    0.0,   15.4,   0.00,   0.00, 1015.4,    0.3, -999.0
06-09-2023, 00:04:19,    358,    0.0,   15.4,   0.00,   0.00, 1015.4,    0.1, -999.0
06-09-2023, 00:04:29,    358,    0.0,   15.4,   0.00,   0.00, 1015.4,    0.3, -999.0
06-09-2023, 00:04:39,    358,    0.0,   15.4,   0.00,   0.00, 1015.4,    0.2, -999.0
06-09-2023, 00:04:49,    358,    0.0,   15.4,   0.00,   0.00, 1015.4,    0.2, -999.0
06-09-2023, 00:04:59,    358,    0.0,   15.4,   0.00,   0.00, 1015.4,    0.2, -999.0
06-09-2023, 00:05:09,    358,    0.0,   15.4,   0.00,   0.00, 1015.4,    0.2, -999.0
06-09-2023, 00:05:19,    358,    0.0,   15.4,   0.00,   0.00, 1015.4,    0.3, -999.0
06-09-2023, 00:05:29,    358,    0.0,   15.4,   0.00,   0.00, 1015.5,    0.2, -999.0
06-09-2023, 00:05:39,    358,    0.0,   15.3,   0.00,   0.00, 1015.5,    0.1, -999.0
06-09-2023, 00:05:49,    358,    0.0,   15.3,   0.00,   0.00, 1015.5,    0.3, -999.0
06-09-2023, 00:05:59,    358,    0.0,   15.4,   0.00,   0.00, 1015.4,    0.2, -999.0
06-09-2023, 00:06:09,    358,    0.0,   15.4,   0.00,   0.00, 1015.5,    0.3, -999.0
06-09-2023, 00:06:19,    358,    0.0,   15.3,   0.00,   0.00, 1015.5,    0.2, -999.0
06-09-2023, 00:06:29,    358,    0.0,   15.3,   0.00,   0.00, 1015.5,    0.2, -999.0
06-09-2023, 00:06:39,    358,    0.0,   15.4,   0.00,   0.00, 1015.4,    0.2, -999.0
06-09-2023, 00:06:49,    358,    0.0,   15.3,   0.00,   0.00, 1015.5,    0.3, -999.0
06-09-2023, 00:06:59,    358,    0.0,   15.3,   0.00,   0.00, 1015.5,    0.2, -999.0
06-09-2023, 00:07:09,    358,    0.0,   15.3,   0.00,   0.00, 1015.5,    0.1, -999.0
06-09-2023, 00:07:19,    358,    0.0,   15.3,   0.00,   0.00, 1015.5,    0.2, -999.0
06-09-2023, 00:07:29,    358,    0.0,   15.3,   0.00,   0.00, 1015.5,    0.3, -999.0
06-09-2023, 00:07:39,    358,    0.0,   15.3,   0.00,   0.00, 1015.5,    0.1, -999.0
06-09-2023, 00:07:48,    358,    0.0,   15.4,   0.00,   0.00, 1015.5,    0.4, -999.0
06-09-2023, 00:07:59,    358,    0.0,   15.3,   0.00,   0.00, 1015.5,    0.4, -999.0
06-09-2023, 00:08:09,    358,    0.0,   15.3,   0.00,   0.00, 1015.5,    0.1, -999.0
06-09-2023, 00:08:19,    358,    0.0,   15.3,   0.00,   0.00, 1015.5,    0.4, -999.0
06-09-2023, 00:08:28,    358,    0.0,   15.3,   0.00,   0.00, 1015.4,    0.2, -999.0
06-09-2023, 00:08:39,    358,    0.0,   15.3,   0.00,   0.00, 1015.5,    0.4, -999.0
06-09-2023, 00:08:49,    358,    0.0,   15.3,   0.00,   0.00, 1015.5,    0.1, -999.0
06-09-2023, 00:08:58,    358,    0.0,   15.4,   0.00,   0.00, 1015.4,    0.3, -999.0
06-09-2023, 00:09:08,    358,    0.0,   15.4,   0.00,   0.00, 1015.5,    0.2, -999.0
06-09-2023, 00:09:19,    358,    0.0,   15.4,   0.00,   0.00, 1015.5,    0.2, -999.0
06-09-2023, 00:09:28,    358,    0.0,   15.3,   0.00,   0.00, 1015.5,    0.2, -999.0
06-09-2023, 00:09:38,    358,    0.0,   15.4,   0.00,   0.00, 1015.4,    0.2, -999.0
06-09-2023, 00:09:48,    358,    0.0,   15.4,   0.00,   0.00, 1015.5,    0.2, -999.0
06-09-2023, 00:09:58,    358,    0.0,   15.4,   0.00,   0.00, 1015.5,    0.3, -999.0
06-09-2023, 00:10:08,    358,    0.0,   15.3,   0.00,   0.00, 1015.5,    0.3, -999.0
06-09-2023, 00:10:18,    358,    0.0,   15.4,   0.00,   0.00, 1015.5,    0.1, -999.0
06-09-2023, 00:10:28,    358,    0.0,   15.4,   0.00,   0.00, 1015.5,    0.3, -999.0
06-09-2023, 00:10:38,    358,    0.0,   15.4,   0.00,   0.00, 1015.5,    0.1, -999.0
06-09-2023, 00:10:48,    358,    0.0,   15.4,   0.00,   0.00, 1015.5,    0.1, -999.0
06-09-2023, 00:10:58,    358,    0.0,   15.4,   0.00,   0.00, 1015.5,    0.3, -999.0
06-09-2023, 00:11:08,    358,    0.0,   15.4,   0.00,   0.00, 1015.5,    0.4, -999.0
06-09-2023, 00:11:18,    358,    0.0,   15.4,   0.00,   0.00, 1015.5,    0.2, -999.0
06-09-2023, 00:11:28,    358,    0.0,   15.4,   0.00,   0.00, 1015.5,    0.3, -999.0
06-09-2023, 00:11:38,    358,    0.0,   15.3,   0.00,   0.00, 1015.5,    0.2, -999.0
06-09-2023, 00:11:48,    358,    0.0,   15.4,   0.00,   0.00, 1015.5,    0.2, -999.0
06-09-2023, 00:11:58,    358,    0.0,   15.4,   0.00,   0.00, 1015.5,    0.1, -999.0
06-09-2023, 00:12:08,    358,    0.0,   15.3,   0.00,   0.00, 1015.5,    0.2, -999.0
06-09-2023, 00:12:18,    358,    0.0,   15.3,   0.00,   0.00, 1015.5,    0.2, -999.0
06-09-2023, 00:12:28,    358,    0.0,   15.3,   0.00,   0.00, 1015.5,    0.2, -999.0
06-09-2023, 00:12:38,    358,    0.0,   15.3,   0.00,   0.00, 1015.5,    0.4, -999.0
06-09-2023, 00:12:48,    358,    0.0,   15.4,   0.00,   0.00, 1015.5,    0.2, -999.0
06-09-2023, 00:12:58,    358,    0.0,   15.3,   0.00,   0.00, 1015.5,    0.5, -999.0
06-09-2023, 00:13:08,    358,    0.0,   15.3,   0.00,   0.00, 1015.5,    0.0, -999.0
06-09-2023, 00:13:18,    358,    0.0,   15.3,   0.00,   0.00, 1015.5,    0.3, -999.0
06-09-2023, 00:13:28,    358,    0.0,   15.3,   0.00,   0.00, 1015.5,    0.1, -999.0
06-09-2023, 00:13:37,    358,    0.0,   15.3,   0.00,   0.00, 1015.5,    0.3, -999.0
06-09-2023, 00:13:48,    358,    0.0,   15.3,   0.00,   0.00, 1015.5,    0.3, -999.0
06-09-2023, 00:13:58,    358,    0.0,   15.2,   0.00,   0.00, 1015.5,    0.3, -999.0
06-09-2023, 00:14:07,    358,    0.0,   15.3,   0.00,   0.00, 1015.5,    0.2, -999.0
06-09-2023, 00:14:17,    358,    0.0,   15.2,   0.00,   0.00, 1015.5,    0.3, -999.0
06-09-2023, 00:14:28,    358,    0.0,   15.2,   0.00,   0.00, 1015.5,    0.3, -999.0
06-09-2023, 00:14:38,    358,    0.0,   15.2,   0.00,   0.00, 1015.5,    0.3, -999.0
06-09-2023, 00:14:47,    358,    0.0,   15.2,   0.00,   0.00, 1015.5,    0.2, -999.0
06-09-2023, 00:14:57,    358,    0.0,   15.2,   0.00,   0.00, 1015.5,    0.2, -999.0
06-09-2023, 00:15:08,    358,    0.0,   15.2,   0.00,   0.00, 1015.5,    0.3, -999.0
06-09-2023, 00:15:17,    358,    0.0,   15.3,   0.00,   0.00, 1015.5,    0.2, -999.0
06-09-2023, 00:15:27,    358,    0.0,   15.2,   0.00,   0.00, 1015.5,    0.2, -999.0
06-09-2023, 00:15:37,    358,    0.0,   15.3,   0.00,   0.00, 1015.5,    0.3, -999.0
06-09-2023, 00:15:47,    358,    0.0,   15.3,   0.00,   0.00, 1015.5,    0.3, -999.0
06-09-2023, 00:15:57,    358,    0.0,   15.3,   0.00,   0.00, 1015.5,    0.2, -999.0
06-09-2023, 00:16:07,    358,    0.0,   15.2,   0.00,   0.00, 1015.5,    0.2, -999.0
06-09-2023, 00:16:17,    358,    0.0,   15.2,   0.00,   0.00, 1015.5,    0.2, -999.0
06-09-2023, 00:16:27,    358,    0.0,   15.3,   0.00,   0.00, 1015.5,    0.2, -999.0
06-09-2023, 00:16:37,    358,    0.0,   15.2,   0.00,   0.00, 1015.5,    0.4, -999.0
06-09-2023, 00:16:47,    358,    0.0,   15.3,   0.00,   0.00, 1015.5,    0.2, -999.0
06-09-2023, 00:16:57,    358,    0.0,   15.3,   0.00,   0.00, 1015.5,    0.2, -999.0
06-09-2023, 00:17:07,    358,    0.0,   15.3,   0.00,   0.00, 1015.5,    0.2, -999.0
06-09-2023, 00:17:17,    358,    0.0,   15.3,   0.00,   0.00, 1015.5,    0.3, -999.0
06-09-2023, 00:17:27,    358,    0.0,   15.3,   0.00,   0.00, 1015.5,    0.2, -999.0
06-09-2023, 00:17:37,    358,    0.0,   15.3,   0.00,   0.00, 1015.5,    0.2, -999.0
06-09-2023, 00:17:47,    358,    0.0,   15.3,   0.00,   0.00, 1015.5,    0.2, -999.0
06-09-2023, 00:17:57,    358,    0.0,   15.4,   0.00,   0.00, 1015.5,    0.4, -999.0
06-09-2023, 00:18:07,    358,    0.0,   15.3,   0.00,   0.00, 1015.5,    0.3, -999.0
06-09-2023, 00:18:17,    358,    0.0,   15.3,   0.00,   0.00, 1015.5,    0.3, -999.0
06-09-2023, 00:18:27,    358,    0.0,   15.3,   0.00,   0.00, 1015.5,    0.3, -999.0
06-09-2023, 00:18:37,    358,    0.0,   15.3,   0.00,   0.00, 1015.5,    0.2, -999.0
06-09-2023, 00:18:46,    358,    0.0,   15.3,   0.00,   0.00, 1015.5,    0.3, -999.0
06-09-2023, 00:18:57,    358,    0.0,   15.3,   0.00,   0.00, 1015.5,    0.2, -999.0
06-09-2023, 00:19:07,    358,    0.0,   15.3,   0.00,   0.00, 1015.5,    0.3, -999.0
06-09-2023, 00:19:17,    358,    0.0,   15.3,   0.00,   0.00, 1015.5,    0.2, -999.0
06-09-2023, 00:19:26,    358,    0.0,   15.2,   0.00,   0.00, 1015.5,    0.6, -999.0
06-09-2023, 00:19:37,    357,    0.0,   15.2,   0.00,   0.00, 1015.6,    0.4, -999.0
06-09-2023, 00:19:47,    358,    0.0,   15.2,   0.00,   0.00, 1015.6,    0.3, -999.0
06-09-2023, 00:19:56,    358,    0.0,   15.2,   0.00,   0.00, 1015.5,    0.2, -999.0
06-09-2023, 00:20:06,    358,    0.0,   15.3,   0.00,   0.00, 1015.5,    0.3, -999.0
06-09-2023, 00:20:17,    358,    0.0,   15.2,   0.00,   0.00, 1015.5,    0.2, -999.0
06-09-2023, 00:20:26,    358,    0.0,   15.3,   0.00,   0.00, 1015.5,    0.2, -999.0
06-09-2023, 00:20:36,    358,    0.0,   15.2,   0.00,   0.00, 1015.6,    0.1, -999.0
06-09-2023, 00:20:47,    358,    0.0,   15.2,   0.00,   0.00, 1015.6,    0.2, -999.0
06-09-2023, 00:20:56,    358,    0.0,   15.2,   0.00,   0.00, 1015.6,    0.2, -999.0
06-09-2023, 00:21:06,    358,    0.0,   15.2,   0.00,   0.00, 1015.5,    0.3, -999.0
06-09-2023, 00:21:16,    358,    0.0,   15.2,   0.00,   0.00, 1015.6,    0.2, -999.0
06-09-2023, 00:21:26,    358,    0.0,   15.2,   0.00,   0.00, 1015.5,    0.2, -999.0
06-09-2023, 00:21:36,    358,    0.0,   15.2,   0.00,   0.00, 1015.5,    0.2, -999.0
06-09-2023, 00:21:46,    358,    0.0,   15.2,   0.00,   0.00, 1015.5,    0.3, -999.0
06-09-2023, 00:21:56,    358,    0.0,   15.2,   0.00,   0.00, 1015.5,    0.1, -999.0
06-09-2023, 00:22:06,    358,    0.0,   15.1,   0.00,   0.00, 1015.5,    0.3, -999.0
06-09-2023, 00:22:16,    358,    0.0,   15.1,   0.00,   0.00, 1015.5,    0.2, -999.0
06-09-2023, 00:22:26,    358,    0.0,   15.2,   0.00,   0.00, 1015.5,    0.2, -999.0
06-09-2023, 00:22:36,    358,    0.0,   15.1,   0.00,   0.00, 1015.5,    0.3, -999.0
06-09-2023, 00:22:46,    358,    0.0,   15.1,   0.00,   0.00, 1015.5,    0.2, -999.0
06-09-2023, 00:22:56,    358,    0.0,   15.1,   0.00,   0.00, 1015.5,    0.3, -999.0
06-09-2023, 00:23:06,    358,    0.0,   15.1,   0.00,   0.00, 1015.6,    0.2, -999.0
06-09-2023, 00:23:16,    358,    0.0,   15.1,   0.00,   0.00, 1015.5,    0.4, -999.0
06-09-2023, 00:23:26,    358,    0.0,   15.1,   0.00,   0.00, 1015.5,    0.2, -999.0
06-09-2023, 00:23:36,    358,    0.0,   15.1,   0.00,   0.00, 1015.5,    0.2, -999.0
06-09-2023, 00:23:46,    358,    0.0,   15.1,   0.00,   0.00, 1015.5,    0.2, -999.0
06-09-2023, 00:23:56,    358,    0.0,   15.0,   0.00,   0.00, 1015.5,    0.2, -999.0
06-09-2023, 00:24:06,    358,    0.0,   15.1,   0.00,   0.00, 1015.5,    0.2, -999.0
06-09-2023, 00:24:16,    358,    0.0,   15.1,   0.00,   0.00, 1015.5,    0.2, -999.0
06-09-2023, 00:24:26,    358,    0.0,   15.1,   0.00,   0.00, 1015.5,    0.2, -999.0
06-09-2023, 00:24:35,    358,    0.0,   15.1,   0.00,   0.00, 1015.5,    0.2, -999.0
06-09-2023, 00:24:46,    358,    0.0,   15.1,   0.00,   0.00, 1015.5,    0.3, -999.0
06-09-2023, 00:24:56,    358,    0.0,   15.1,   0.00,   0.00, 1015.5,    0.2, -999.0
06-09-2023, 00:25:06,    358,    0.0,   15.1,   0.00,   0.00, 1015.5,    0.2, -999.0
06-09-2023, 00:25:15,    358,    0.0,   15.1,   0.00,   0.00, 1015.5,    0.2, -999.0
06-09-2023, 00:25:26,    358,    0.0,   15.1,   0.00,   0.00, 1015.5,    0.3, -999.0
06-09-2023, 00:25:36,    358,    0.0,   15.1,   0.00,   0.00, 1015.5,    0.3, -999.0
06-09-2023, 00:25:45,    358,    0.0,   15.1,   0.00,   0.00, 1015.5,    0.1, -999.0
06-09-2023, 00:25:55,    358,    0.0,   15.1,   0.00,   0.00, 1015.5,    0.2, -999.0
06-09-2023, 00:26:06,    358,    0.0,   15.1,   0.00,   0.00, 1015.5,    0.2, -999.0
06-09-2023, 00:26:15,    358,    0.0,   15.1,   0.00,   0.00, 1015.5,    0.2, -999.0
06-09-2023, 00:26:25,    358,    0.0,   15.1,   0.00,   0.00, 1015.5,    0.2, -999.0
06-09-2023, 00:26:35,    358,    0.0,   15.1,   0.00,   0.00, 1015.5,    0.1, -999.0
06-09-2023, 00:26:45,    358,    0.0,   15.1,   0.00,   0.00, 1015.5,    0.2, -999.0
06-09-2023, 00:26:55,    358,    0.0,   15.1,   0.00,   0.00, 1015.5,    0.1, -999.0
06-09-2023, 00:27:05,    358,    0.0,   15.1,   0.00,   0.00, 1015.5,    0.2, -999.0
06-09-2023, 00:27:15,    358,    0.0,   15.1,   0.00,   0.00, 1015.5,    0.1, -999.0
06-09-2023, 00:27:25,    358,    0.0,   15.1,   0.00,   0.00, 1015.5,    0.3, -999.0
06-09-2023, 00:27:35,    358,    0.0,   15.0,   0.00,   0.00, 1015.5,    0.4, -999.0
06-09-2023, 00:27:45,    358,    0.0,   15.1,   0.00,   0.00, 1015.5,    0.3, -999.0
06-09-2023, 00:27:55,    358,    0.0,   15.1,   0.00,   0.00, 1015.5,    0.2, -999.0
06-09-2023, 00:28:06,    358,    0.0,   15.0,   0.00,   0.00, 1015.5,    0.1, -999.0
06-09-2023, 00:28:15,    358,    0.0,   15.1,   0.00,   0.00, 1015.5,    0.2, -999.0
06-09-2023, 00:28:25,    358,    0.0,   15.1,   0.00,   0.00, 1015.5,    0.3, -999.0
06-09-2023, 00:28:35,    358,    0.0,   15.0,   0.00,   0.00, 1015.5,    0.4, -999.0
06-09-2023, 00:28:45,    358,    0.0,   15.1,   0.00,   0.00, 1015.5,    0.3, -999.0
06-09-2023, 00:28:55,    358,    0.0,   15.0,   0.00,   0.00, 1015.5,    0.3, -999.0
06-09-2023, 00:29:05,    358,    0.0,   15.0,   0.00,   0.00, 1015.5,    0.2, -999.0
06-09-2023, 00:29:15,    358,    0.0,   15.1,   0.00,   0.00, 1015.5,    0.2, -999.0
06-09-2023, 00:29:25,    358,    0.0,   15.1,   0.00,   0.00, 1015.5,    0.1, -999.0
06-09-2023, 00:29:35,    358,    0.0,   15.0,   0.00,   0.00, 1015.5,    0.3, -999.0
06-09-2023, 00:29:45,    358,    0.0,   15.1,   0.00,   0.00, 1015.5,    0.1, -999.0
06-09-2023, 00:29:55,    358,    0.0,   15.1,   0.00,   0.00, 1015.5,    0.2, -999.0
06-09-2023, 00:30:05,    359,    0.0,   15.0,   0.00,   0.00, 1015.5,    0.1, -999.0
06-09-2023, 00:30:15,    358,    0.0,   15.1,   0.00,   0.00, 1015.5,    0.1, -999.0
06-09-2023, 00:30:24,    359,    0.0,   15.0,   0.00,   0.00, 1015.5,    0.3, -999.0
06-09-2023, 00:30:35,    358,    0.0,   15.0,   0.00,   0.00, 1015.5,    0.4, -999.0
06-09-2023, 00:30:45,    358,    0.0,   15.1,   0.00,   0.00, 1015.5,    0.2, -999.0
06-09-2023, 00:30:54,    358,    0.0,   15.0,   0.00,   0.00, 1015.5,    0.2, -999.0
06-09-2023, 00:31:04,    358,    0.0,   15.1,   0.00,   0.00, 1015.5,    0.4, -999.0
06-09-2023, 00:31:15,    358,    0.0,   15.1,   0.00,   0.00, 1015.5,    0.1, -999.0
06-09-2023, 00:31:25,    358,    0.0,   15.1,   0.00,   0.00, 1015.5,    0.1, -999.0
06-09-2023, 00:31:34,    358,    0.0,   14.9,   0.00,   0.00, 1015.5,    0.2, -999.0
06-09-2023, 00:31:44,    358,    0.0,   15.0,   0.00,   0.00, 1015.6,    0.2, -999.0
06-09-2023, 00:31:55,    358,    0.0,   15.0,   0.00,   0.00, 1015.5,    0.2, -999.0
06-09-2023, 00:32:04,    358,    0.0,   15.0,   0.00,   0.00, 1015.5,    0.2, -999.0
06-09-2023, 00:32:14,    358,    0.0,   15.0,   0.00,   0.00, 1015.5,    0.2, -999.0
06-09-2023, 00:32:24,    358,    0.0,   15.0,   0.00,   0.00, 1015.5,    0.1, -999.0
06-09-2023, 00:32:34,    358,    0.0,   15.0,   0.00,   0.00, 1015.6,    0.3, -999.0
06-09-2023, 00:32:44,    358,    0.0,   15.0,   0.00,   0.00, 1015.5,    0.4, -999.0
06-09-2023, 00:32:54,    358,    0.0,   14.9,   0.00,   0.00, 1015.6,    0.1, -999.0
06-09-2023, 00:33:04,    358,    0.0,   14.9,   0.00,   0.00, 1015.5,    0.2, -999.0
06-09-2023, 00:33:14,    358,    0.0,   14.9,   0.00,   0.00, 1015.5,    0.1, -999.0
06-09-2023, 00:33:24,    358,    0.0,   14.9,   0.00,   0.00, 1015.5,    0.3, -999.0
06-09-2023, 00:33:34,    358,    0.0,   15.0,   0.00,   0.00, 1015.5,    0.1, -999.0
06-09-2023, 00:33:44,    358,    0.0,   15.0,   0.00,   0.00, 1015.6,    0.3, -999.0
06-09-2023, 00:33:54,    358,    0.0,   14.8,   0.00,   0.00, 1015.6,    0.2, -999.0
06-09-2023, 00:34:04,    358,    0.0,   14.9,   0.00,   0.00, 1015.6,    0.2, -999.0
06-09-2023, 00:34:14,    358,    0.0,   14.9,   0.00,   0.00, 1015.6,    0.1, -999.0
06-09-2023, 00:34:24,    358,    0.0,   14.9,   0.00,   0.00, 1015.6,    0.2, -999.0
06-09-2023, 00:34:34,    358,    0.0,   14.9,   0.00,   0.00, 1015.6,    0.3, -999.0
06-09-2023, 00:34:44,    358,    0.0,   15.0,   0.00,   0.00, 1015.6,    0.1, -999.0
06-09-2023, 00:34:54,    358,    0.0,   15.0,   0.00,   0.00, 1015.6,    0.3, -999.0
06-09-2023, 00:35:04,    358,    0.0,   15.0,   0.00,   0.00, 1015.6,    0.2, -999.0
06-09-2023, 00:35:14,    358,    0.0,   15.0,   0.00,   0.00, 1015.6,    0.2, -999.0
06-09-2023, 00:35:24,    358,    0.0,   15.0,   0.00,   0.00, 1015.6,    0.3, -999.0
06-09-2023, 00:35:34,    358,    0.0,   15.0,   0.00,   0.00, 1015.6,    0.2, -999.0
06-09-2023, 00:35:44,    358,    0.0,   15.0,   0.00,   0.00, 1015.6,    0.2, -999.0
06-09-2023, 00:35:54,    358,    0.0,   15.0,   0.00,   0.00, 1015.6,    0.3, -999.0
06-09-2023, 00:36:04,    358,    0.0,   15.0,   0.00,   0.00, 1015.6,    0.3, -999.0
06-09-2023, 00:36:13,    358,    0.0,   15.1,   0.00,   0.00, 1015.6,    0.2, -999.0
06-09-2023, 00:36:24,    358,    0.0,   15.0,   0.00,   0.00, 1015.6,    0.0, -999.0
06-09-2023, 00:36:34,    358,    0.0,   15.0,   0.00,   0.00, 1015.6,    0.3, -999.0
06-09-2023, 00:36:43,    358,    0.0,   15.0,   0.00,   0.00, 1015.7,    0.2, -999.0
06-09-2023, 00:36:53,    358,    0.0,   15.0,   0.00,   0.00, 1015.7,    0.3, -999.0
06-09-2023, 00:37:04,    358,    0.0,   14.9,   0.00,   0.00, 1015.6,    0.3, -999.0
06-09-2023, 00:37:13,    358,    0.0,   15.0,   0.00,   0.00, 1015.6,    0.3, -999.0
06-09-2023, 00:37:23,    358,    0.0,   14.9,   0.00,   0.00, 1015.6,    0.2, -999.0
06-09-2023, 00:37:34,    358,    0.0,   15.0,   0.00,   0.00, 1015.6,    0.1, -999.0
06-09-2023, 00:37:43,    358,    0.0,   14.9,   0.00,   0.00, 1015.7,    0.2, -999.0
06-09-2023, 00:37:53,    358,    0.0,   14.9,   0.00,   0.00, 1015.7,    0.2, -999.0
06-09-2023, 00:38:03,    358,    0.0,   14.9,   0.00,   0.00, 1015.7,    0.2, -999.0
06-09-2023, 00:38:14,    358,    0.0,   14.9,   0.00,   0.00, 1015.7,    0.1, -999.0
06-09-2023, 00:38:23,    358,    0.0,   14.9,   0.00,   0.00, 1015.7,    0.2, -999.0
06-09-2023, 00:38:33,    358,    0.0,   14.9,   0.00,   0.00, 1015.7,    0.1, -999.0
06-09-2023, 00:38:43,    358,    0.0,   14.9,   0.00,   0.00, 1015.7,    0.3, -999.0
06-09-2023, 00:38:53,    358,    0.0,   14.9,   0.00,   0.00, 1015.7,    0.3, -999.0
06-09-2023, 00:39:03,    358,    0.0,   14.9,   0.00,   0.00, 1015.7,    0.3, -999.0
06-09-2023, 00:39:13,    358,    0.0,   14.9,   0.00,   0.00, 1015.7,    0.2, -999.0
06-09-2023, 00:39:23,    358,    0.0,   14.9,   0.00,   0.00, 1015.7,    0.2, -999.0
06-09-2023, 00:39:33,    358,    0.0,   14.9,   0.00,   0.00, 1015.7,    0.2, -999.0
06-09-2023, 00:39:43,    358,    0.0,   14.9,   0.00,   0.00, 1015.7,    0.4, -999.0
06-09-2023, 00:39:53,    358,    0.0,   14.9,   0.00,   0.00, 1015.7,    0.2, -999.0
06-09-2023, 00:40:03,    358,    0.0,   14.9,   0.00,   0.00, 1015.7,    0.2, -999.0
06-09-2023, 00:40:13,    358,    0.0,   14.9,   0.00,   0.00, 1015.7,    0.2, -999.0
06-09-2023, 00:40:23,    358,    0.0,   14.9,   0.00,   0.00, 1015.7,    0.1, -999.0
06-09-2023, 00:40:33,    358,    0.0,   14.8,   0.00,   0.00, 1015.8,    0.2, -999.0
06-09-2023, 00:40:43,    358,    0.0,   14.9,   0.00,   0.00, 1015.8,    0.2, -999.0
06-09-2023, 00:40:53,    358,    0.0,   14.8,   0.00,   0.00, 1015.8,    0.2, -999.0
06-09-2023, 00:41:03,    358,    0.0,   14.8,   0.00,   0.00, 1015.8,    0.2, -999.0
06-09-2023, 00:41:13,    358,    0.0,   14.9,   0.00,   0.00, 1015.8,    0.1, -999.0
06-09-2023, 00:41:23,    358,    0.0,   14.8,   0.00,   0.00, 1015.7,    0.1, -999.0
06-09-2023, 00:41:33,    358,    0.0,   14.9,   0.00,   0.00, 1015.8,    0.3, -999.0
06-09-2023, 00:41:43,    358,    0.0,   14.9,   0.00,   0.00, 1015.8,    0.1, -999.0
06-09-2023, 00:41:53,    358,    0.0,   14.9,   0.00,   0.00, 1015.8,    0.2, -999.0
06-09-2023, 00:42:02,    358,    0.0,   14.8,   0.00,   0.00, 1015.7,    0.2, -999.0
06-09-2023, 00:42:13,    358,    0.0,   14.9,   0.00,   0.00, 1015.7,    0.2, -999.0
06-09-2023, 00:42:23,    358,    0.0,   14.8,   0.00,   0.00, 1015.7,    0.2, -999.0
06-09-2023, 00:42:32,    358,    0.0,   14.8,   0.00,   0.00, 1015.8,    0.1, -999.0
06-09-2023, 00:42:42,    358,    0.0,   14.8,   0.00,   0.00, 1015.8,    0.2, -999.0
06-09-2023, 00:42:53,    358,    0.0,   14.8,   0.00,   0.00, 1015.7,    0.2, -999.0
06-09-2023, 00:43:02,    358,    0.0,   14.8,   0.00,   0.00, 1015.7,    0.3, -999.0
06-09-2023, 00:43:12,    358,    0.0,   14.8,   0.00,   0.00, 1015.7,    0.2, -999.0
06-09-2023, 00:43:22,    358,    0.0,   14.8,   0.00,   0.00, 1015.7,    0.1, -999.0
06-09-2023, 00:43:33,    358,    0.0,   14.8,   0.00,   0.00, 1015.7,    0.2, -999.0
06-09-2023, 00:43:42,    358,    0.0,   14.8,   0.00,   0.00, 1015.7,    0.1, -999.0
06-09-2023, 00:43:52,    358,    0.0,   14.8,   0.00,   0.00, 1015.7,    0.1, -999.0
06-09-2023, 00:44:02,    358,    0.0,   14.8,   0.00,   0.00, 1015.7,    0.0, -999.0
06-09-2023, 00:44:12,    358,    0.0,   14.8,   0.00,   0.00, 1015.7,    0.2, -999.0
06-09-2023, 00:44:22,    359,    0.0,   14.8,   0.00,   0.00, 1015.7,    0.2, -999.0
06-09-2023, 00:44:32,    358,    0.0,   14.8,   0.00,   0.00, 1015.7,    0.2, -999.0
06-09-2023, 00:44:42,    358,    0.0,   14.8,   0.00,   0.00, 1015.7,    0.2, -999.0
06-09-2023, 00:44:52,    358,    0.0,   14.8,   0.00,   0.00, 1015.7,    0.3, -999.0
06-09-2023, 00:45:02,    358,    0.0,   14.8,   0.00,   0.00, 1015.7,    0.1, -999.0
06-09-2023, 00:45:12,    358,    0.0,   14.7,   0.00,   0.00, 1015.7,    0.2, -999.0
06-09-2023, 00:45:22,    358,    0.0,   14.9,   0.00,   0.00, 1015.7,    0.1, -999.0
06-09-2023, 00:45:32,    358,    0.0,   14.9,   0.00,   0.00, 1015.7,    0.1, -999.0
06-09-2023, 00:45:42,    358,    0.0,   14.9,   0.00,   0.00, 1015.7,    0.4, -999.0
06-09-2023, 00:45:52,    358,    0.0,   14.9,   0.00,   0.00, 1015.7,    0.1, -999.0
06-09-2023, 00:46:02,    358,    0.0,   14.9,   0.00,   0.00, 1015.7,    0.3, -999.0
06-09-2023, 00:46:12,    358,    0.0,   14.9,   0.00,   0.00, 1015.7,    0.3, -999.0
06-09-2023, 00:46:22,    358,    0.0,   14.9,   0.00,   0.00, 1015.7,    0.1, -999.0
06-09-2023, 00:46:32,    358,    0.0,   15.0,   0.00,   0.00, 1015.7,    0.2, -999.0
06-09-2023, 00:46:42,    358,    0.0,   15.0,   0.00,   0.00, 1015.7,    0.1, -999.0